TORONTO ISLAND, Ontario

2:14 AM EST on December 08, 2016 (GMT -0500)
Toronto-City Centre

Weather History for CYTZ - November, 2013

Change the Weather History Date:

Saturday, November 23, 2013

  Actual Average Record
Temperature  
Mean Temperature 24 °F -  
Max Temperature 33 °F 37 °F 55 °F (1998)
Min Temperature 15 °F 27 °F 14 °F (2000)
Degree Days  
Heating Degree Days 41    
Moisture  
Dew Point 19 °F    
Average Humidity 71    
Maximum Humidity 87    
Minimum Humidity 39    
Precipitation  
Precipitation 0.00 in 0.10 in - ()
Sea Level Pressure  
Sea Level Pressure 30.15 in    
Wind  
Wind Speed 16 mph ()    
Max Wind Speed 30 mph    
Max Gust Speed 38 mph    
Visibility 6.5 miles    
Events Rain , Snow    
Averages and records for this station are not official NWS values.
T = Trace of Precipitation, MM = Missing Value Source: Averaged Metar Reports

Daily Weather History Graph

Daily Weather History Graph

Search for Another Location

Airport or City:

Trip Planner

Search our weather history database for the weather conditions in past years. The results will help you decide how hot, cold, wet, or windy it might be!

Date:

Astronomy

Nov. 23, 2013 Rise Set
Actual Time 7:22 AM EST 4:45 PM EST
Civil Twilight 6:50 AM EST 5:17 PM EST
Nautical Twilight 6:15 AM EST 5:52 PM EST
Astronomical Twilight 5:40 AM EST 6:26 PM EST
Moon 10:16 PM EST (11/23) 11:34 AM EST (11/23)
Length of Visible Light 10h 27m
Length of Day
9h 23m
Waning Gibbous, 70% of the Moon is Illuminated
Nov 23
Waning Gibbous
Nov 25
Last Quarter
Dec 2
New
Dec 9
First Quarter
Dec 17
Full

Hourly Weather History & Observations

Time (EST) Temp. Windchill Dew Point Humidity Pressure Visibility Wind Dir Wind Speed Gust Speed Precip Events Conditions
12:00 AM 30.2 °F 21.3 °F 24.8 °F 80% 30.23 in 9.0 mi WNW 10.4 mph - N/A   Clear
1:00 AM 31 °F - 25 °F 70% 30.24 in 10 mi WNW 10.4 mph - -  
1:00 AM 32.0 °F 23.6 °F 24.8 °F 75% 30.24 in 9.0 mi WNW 10.4 mph - N/A   Mostly Cloudy
2:00 AM 32.0 °F 24.8 °F 24.8 °F 75% 30.24 in 9.0 mi West 8.1 mph - N/A   Overcast
3:00 AM 33.8 °F 23.9 °F 23.0 °F 65% 30.23 in 9.0 mi WNW 15.0 mph - N/A   Overcast
4:00 AM 32.0 °F 23.6 °F 21.2 °F 64% 30.21 in 9.0 mi WNW 10.4 mph 18.4 mph N/A   Overcast
5:00 AM 32.0 °F 26.4 °F 23.0 °F 69% 30.18 in 9.0 mi West 5.8 mph - N/A   Overcast
6:00 AM 32.0 °F 22.5 °F 24.8 °F 75% 30.16 in 9.0 mi SW 12.7 mph - N/A   Overcast
7:00 AM 33 °F - 26 °F 68% 30.15 in 10 mi SW 21.9 mph - -  
7:00 AM 33.8 °F 21.6 °F 26.6 °F 75% 30.15 in 9.0 mi SW 23.0 mph - N/A   Mostly Cloudy
8:00 AM 32.0 °F 20.5 °F 24.8 °F 75% 30.11 in 9.0 mi WSW 18.4 mph 24.2 mph N/A   Clear
9:00 AM 33.8 °F 21.3 °F 24.8 °F 70% 30.08 in 9.0 mi WSW 24.2 mph - N/A   Mostly Cloudy
10:00 AM 33.8 °F 21.3 °F 26.6 °F 75% 30.07 in 9.0 mi WSW 24.2 mph 29.9 mph N/A   Overcast
10:01 AM 33.8 °F 21.3 °F 26.6 °F 75% 30.07 in 9.0 mi West 24.2 mph 29.9 mph N/A   Overcast
10:02 AM 33.8 °F 21.6 °F 26.6 °F 75% 30.07 in 9.0 mi West 23.0 mph 29.9 mph N/A   Overcast
10:03 AM 33.8 °F 21.6 °F 26.6 °F 75% 30.07 in 9.0 mi West 23.0 mph 29.9 mph N/A   Overcast
10:07 AM 32.0 °F 19.8 °F 26.6 °F 80% 30.08 in 9.0 mi West 20.7 mph 29.9 mph N/A   Overcast
10:08 AM 32.0 °F 19.8 °F 26.6 °F 80% 30.08 in 8.0 mi West 20.7 mph 29.9 mph N/A   Overcast
10:10 AM 32.0 °F 19.8 °F 28.4 °F 87% 30.09 in 6.0 mi WNW 20.7 mph 29.9 mph N/A Snow Light Snow
10:11 AM 32.0 °F 20.5 °F 26.6 °F 80% 30.09 in 4.0 mi WNW 18.4 mph 29.9 mph N/A Snow Light Snow
10:14 AM 32.0 °F 18.6 °F 26.6 °F 80% 30.09 in 2.5 mi West 25.3 mph 33.4 mph N/A Snow Light Snow
10:21 AM 30.2 °F 18.9 °F 24.8 °F 80% 30.08 in 3.0 mi West 16.1 mph 33.4 mph N/A Snow Light Snow
10:24 AM 30.2 °F 19.3 °F 24.8 °F 80% 30.08 in 6.0 mi West 15.0 mph 23.0 mph N/A Snow Light Snow
10:30 AM 32.0 °F 21.2 °F 24.8 °F 75% 30.08 in 9.0 mi WNW 16.1 mph - N/A   Mostly Cloudy
11:00 AM 32.0 °F 20.5 °F 23.0 °F 69% 30.08 in 9.0 mi NW 18.4 mph 34.5 mph N/A   Mostly Cloudy
11:28 AM 33.8 °F 20.1 °F 19.4 °F 56% 30.07 in 9.0 mi WNW 29.9 mph 36.8 mph N/A   Overcast
11:39 AM 33.8 °F 21.6 °F 19.4 °F 56% 30.07 in 9.0 mi WNW 23.0 mph 34.5 mph N/A   Mostly Cloudy
11:51 AM 32.0 °F 18.4 °F 19.4 °F 60% 30.07 in 9.0 mi WNW 26.5 mph 34.5 mph N/A   Mostly Cloudy
12:00 PM 32.0 °F 19.8 °F 19.4 °F 60% 30.07 in 9.0 mi WNW 20.7 mph 32.2 mph N/A   Scattered Clouds
12:35 PM 32.0 °F 20.1 °F 23.0 °F 69% 30.08 in 9.0 mi NW 19.6 mph 38.0 mph N/A Rain Light Rain
12:38 PM 30.2 °F 18.1 °F 23.0 °F 75% 30.07 in 9.0 mi NW 18.4 mph 36.8 mph N/A Rain , Snow Light Snow
12:43 PM 30.2 °F 18.1 °F 23.0 °F 75% 30.08 in 9.0 mi NW 18.4 mph 27.6 mph N/A Snow Light Snow
1:00 PM 30 °F - 23 °F 66% 30.08 in 7 mi NW 16.1 mph - - Snow Light Snow
1:00 PM 30.2 °F 18.9 °F 23.0 °F 75% 30.08 in 8.0 mi NW 16.1 mph 24.2 mph N/A Snow Light Snow
1:14 PM 30.2 °F 18.9 °F 23.0 °F 75% 30.08 in 5.0 mi NW 16.1 mph 29.9 mph N/A Snow Light Snow
1:23 PM 30.2 °F 16.8 °F 21.2 °F 69% 30.08 in 6.0 mi WNW 23.0 mph 31.1 mph N/A Snow Light Snow
2:00 PM 30.2 °F 17.8 °F 15.8 °F 55% 30.07 in 8.0 mi WNW 19.6 mph 32.2 mph N/A Snow Light Snow
2:08 PM 32.0 °F 18.6 °F 15.8 °F 51% 30.08 in 9.0 mi WNW 25.3 mph 33.4 mph N/A   Mostly Cloudy
2:10 PM 32.0 °F 19.2 °F 21.2 °F 64% 30.08 in 9.0 mi NNW 23.0 mph 33.4 mph N/A Snow Light Snow
2:11 PM 30.2 °F 16.5 °F 21.2 °F 69% 30.08 in 5.0 mi NNW 24.2 mph 33.4 mph N/A Snow Light Snow
2:22 PM 26.6 °F 14.3 °F 21.2 °F 80% 30.09 in 7.0 mi NW 16.1 mph 27.6 mph N/A Snow Light Snow
2:25 PM 26.6 °F 14.7 °F 21.2 °F 80% 30.10 in 5.0 mi NW 15.0 mph 27.6 mph N/A Snow Light Snow
2:27 PM 26.6 °F 13.4 °F 23.0 °F 86% 30.09 in 2.5 mi WNW 18.4 mph 27.6 mph N/A Snow Light Snow
2:28 PM 26.6 °F 13.1 °F 23.0 °F 86% 30.09 in 2.0 mi NW 19.6 mph 26.5 mph N/A Snow Light Snow
2:29 PM 26.6 °F 14.3 °F 23.0 °F 86% 30.10 in 1.5 mi NW 16.1 mph 26.5 mph N/A Snow Light Snow
2:33 PM 26.6 °F 15.2 °F 23.0 °F 86% 30.09 in 0.8 mi NW 13.8 mph 26.5 mph N/A Snow Light Snow
2:37 PM 26.6 °F 14.3 °F 21.2 °F 80% 30.09 in 1.2 mi WNW 16.1 mph 25.3 mph N/A Snow Light Snow
2:40 PM 26.6 °F 14.7 °F 21.2 °F 80% 30.10 in 2.2 mi NW 15.0 mph 25.3 mph N/A Snow Light Snow
2:41 PM 26.6 °F 15.2 °F 21.2 °F 80% 30.10 in 3.0 mi WNW 13.8 mph 25.3 mph N/A Snow Light Snow
2:42 PM 26.6 °F 15.2 °F 21.2 °F 80% 30.10 in 4.0 mi NW 13.8 mph 25.3 mph N/A Snow Light Snow
2:43 PM 26.6 °F 14.7 °F 19.4 °F 74% 30.09 in 6.0 mi NW 15.0 mph 25.3 mph N/A Snow Light Snow
2:51 PM 26.6 °F 10.8 °F 17.6 °F 69% 30.10 in 7.0 mi NW 27.6 mph 36.8 mph N/A Snow Light Snow
2:52 PM 26.6 °F 10.8 °F 19.4 °F 74% 30.10 in 4.0 mi WNW 27.6 mph 36.8 mph N/A Snow Light Snow
2:54 PM 26.6 °F 10.8 °F 19.4 °F 74% 30.10 in 2.5 mi WNW 27.6 mph 36.8 mph N/A Snow Light Snow
2:55 PM 26.6 °F 11.7 °F 19.4 °F 74% 30.10 in 2.0 mi WNW 24.2 mph 36.8 mph N/A Snow Light Snow
2:56 PM 26.6 °F 12.0 °F 21.2 °F 80% 30.10 in 1.5 mi WNW 23.0 mph 36.8 mph N/A Snow Light Snow
3:00 PM 26.6 °F 12.7 °F 19.4 °F 74% 30.11 in 1.2 mi WNW 20.7 mph 35.7 mph N/A Snow Light Snow
3:01 PM 26.6 °F 13.4 °F 21.2 °F 80% 30.11 in 1.2 mi WNW 18.4 mph 35.7 mph N/A Snow Light Snow
3:04 PM 26.6 °F 12.7 °F 17.6 °F 69% 30.11 in 2.0 mi WNW 20.7 mph 29.9 mph N/A Snow Light Snow
3:06 PM 26.6 °F 12.4 °F 17.6 °F 69% 30.10 in 4.0 mi WNW 21.9 mph 29.9 mph N/A Snow Light Snow
3:07 PM 26.6 °F 12.7 °F 17.6 °F 69% 30.11 in 7.0 mi WNW 20.7 mph 29.9 mph N/A Snow Light Snow
3:14 PM 26.6 °F 11.4 °F 14.0 °F 59% 30.11 in 9.0 mi WNW 25.3 mph 34.5 mph N/A   Mostly Cloudy
3:40 PM 26.6 °F 12.4 °F 14.0 °F 59% 30.12 in 9.0 mi NW 21.9 mph 35.7 mph N/A Snow Light Snow
3:56 PM 24.8 °F 9.3 °F 10.4 °F 54% 30.13 in 9.0 mi WNW 24.2 mph 34.5 mph N/A   Scattered Clouds
4:00 PM 24.8 °F 10.3 °F 10.4 °F 54% 30.13 in 9.0 mi WNW 20.7 mph 34.5 mph N/A   Scattered Clouds
5:00 PM 23.0 °F 8.0 °F 6.8 °F 50% 30.16 in 9.0 mi WNW 20.7 mph 35.7 mph N/A   Clear
6:00 PM 21.2 °F 6.4 °F 8.6 °F 58% 30.19 in 9.0 mi WNW 18.4 mph 29.9 mph N/A   Clear
7:00 PM 21 °F - 7 °F 39% 30.20 in 10 mi WNW 18.4 mph - -  
7:00 PM 21.2 °F 6.0 °F 6.8 °F 54% 30.20 in 9.0 mi WNW 19.6 mph 27.6 mph N/A   Clear
8:00 PM 19.4 °F 5.0 °F 6.8 °F 58% 30.22 in 9.0 mi WNW 16.1 mph 25.3 mph N/A   Clear
8:30 PM 21.2 °F 7.8 °F 8.6 °F 58% 30.23 in 9.0 mi WNW 15.0 mph 27.6 mph N/A Snow Light Snow
8:46 PM 19.4 °F 4.1 °F 6.8 °F 58% 30.23 in 9.0 mi NW 18.4 mph 28.8 mph N/A   Overcast
8:50 PM 19.4 °F 3.2 °F 6.8 °F 58% 30.23 in 9.0 mi NW 20.7 mph - N/A Snow Light Snow
9:00 PM 19.4 °F 3.6 °F 8.6 °F 63% 30.24 in 9.0 mi NW 19.6 mph 27.6 mph N/A Snow Light Snow
9:08 PM 19.4 °F 5.5 °F 10.4 °F 68% 30.24 in 9.0 mi NW 15.0 mph 26.5 mph N/A   Overcast
9:12 PM 19.4 °F 6.0 °F 10.4 °F 68% 30.25 in 9.0 mi NW 13.8 mph 24.2 mph N/A Snow Light Snow
9:15 PM 19.4 °F 6.6 °F 14.0 °F 80% 30.25 in 4.0 mi NNW 12.7 mph 20.7 mph N/A Snow Light Snow
9:16 PM 19.4 °F 6.6 °F 14.0 °F 80% 30.25 in 3.0 mi NNW 12.7 mph 20.7 mph N/A Snow Light Snow
9:18 PM 19.4 °F 7.9 °F 14.0 °F 80% 30.25 in 2.0 mi NW 10.4 mph 19.6 mph N/A Snow Light Snow
9:19 PM 19.4 °F 6.6 °F 14.0 °F 80% 30.25 in 1.8 mi NW 12.7 mph 19.6 mph N/A Snow Light Snow
9:29 PM 17.6 °F 5.0 °F 14.0 °F 86% 30.25 in 2.2 mi NNW 11.5 mph 18.4 mph N/A Snow Light Snow
9:50 PM 17.6 °F 5.0 °F 12.2 °F 79% 30.26 in 2.5 mi NNW 11.5 mph 19.6 mph N/A Snow Light Snow
10:00 PM 17.6 °F 5.0 °F 12.2 °F 79% 30.27 in 3.0 mi NW 11.5 mph 19.6 mph N/A Snow Light Snow
10:13 PM 17.6 °F 3.7 °F 10.4 °F 73% 30.27 in 6.0 mi NNW 13.8 mph 23.0 mph N/A Snow Light Snow
10:39 PM 17.6 °F 3.2 °F 10.4 °F 73% 30.28 in 5.0 mi NW 15.0 mph 21.9 mph N/A Snow Light Snow
10:44 PM 17.6 °F 3.7 °F 10.4 °F 73% 30.28 in 6.0 mi NW 13.8 mph 21.9 mph N/A Snow Light Snow
10:47 PM 17.6 °F 2.7 °F 10.4 °F 73% 30.28 in 5.0 mi NW 16.1 mph - N/A Snow Light Snow
10:59 PM 15.8 °F -0.2 °F 10.4 °F 79% 30.28 in 6.0 mi NW 17.3 mph - N/A Snow Light Snow
11:00 PM 15.8 °F -0.6 °F 8.6 °F 73% 30.28 in 7.0 mi NW 18.4 mph - N/A Snow Light Snow
11:10 PM 15.8 °F 1.4 °F 6.8 °F 68% 30.28 in 9.0 mi NW 13.8 mph 25.3 mph N/A   Overcast